Location: Unspecified
(35.7250°N, 0.0000°E)
Time: 02:21:33
(UTC+00:00)

Explorer 7 - Pass Details

Date: 23 June 2019
Orbit: 485 x 680 km, 50.3° (Epoch: 16 August)

Event Time Altitude Azimuth Distance (km) Brightness Sun altitude
Rises 12:06:50 0° 313° (NW) 2,904 10.4 77.7°
Reaches altitude 10° 12:10:00 10° 336° (NNW) 2,034 9.7 77.6°
Maximum altitude 12:12:49 16° 13° (NNE) 1,719 9.4 77.5°
Drops below altitude 10° 12:15:43 10° 50° (NE) 2,086 9.8 77.4°
Sets 12:19:01 0° 72° (ENE) 3,019 10.5 77.2°
